Location: Heiligenberg
(48.5381°N, 7.3897°E)
Time: 20:18:46
(UTC+00:00)

COSMOS 2455 - Pass Details

Date: 26 May 2022
Orbit: 901 x 908 km, 67.1° (Epoch: 02 July)

Event Time Altitude Azimuth Distance (km) Brightness Sun altitude
Exits shadow 02:04:51 15° 203° (SSW) 2,241 4.3 -12.0°
Maximum altitude 02:09:53 74° 120° (ESE) 947 3.0 -11.5°
Drops below altitude 10° 02:15:54 10° 37° (NE) 2,601 6.9 -10.9°
Sets 02:18:26 0° 36° (NE) 3,547 8.2 -10.6°
